JBU1757 KISP-KORF

Flight info

Callsign JBU1757
Flight time 1h 2m
Altitude 32000
Route BEADS EMJAY Q167 ZJAAY CCV
Aircraft A320/M-SDE3FGHIRWY/LB1

Departure

Time 2026-05-07 15:34
Airport Long Island MacArthur Airport (KISP)

Arrival

Time 2026-05-07 16:37
Airport Norfolk International Airport (KORF)
Time Latitude Longitude Altitude Speed Heading
2026-05-07 15:11 40.79045 -73.09729 98 ft 0 kts 180°
2026-05-07 15:24 40.79061 -73.09729 99 ft 3 kts 180°
2026-05-07 15:24 40.79080 -73.09729 98 ft 3 kts 182°
2026-05-07 15:24 40.79098 -73.09721 97 ft 3 kts 224°
2026-05-07 15:24 40.79109 -73.09700 96 ft 3 kts 252°
2026-05-07 15:25 40.79111 -73.09689 96 ft 0 kts 262°
2026-05-07 15:29 40.79110 -73.09696 96 ft 3 kts 266°
2026-05-07 15:29 40.79111 -73.09744 98 ft 8 kts 272°
2026-05-07 15:30 40.79112 -73.09837 98 ft 12 kts 270°
2026-05-07 15:30 40.79113 -73.09945 98 ft 12 kts 270°
2026-05-07 15:30 40.79113 -73.10094 98 ft 12 kts 270°
2026-05-07 15:30 40.79113 -73.10169 99 ft 12 kts 269°
2026-05-07 15:31 40.79113 -73.10283 98 ft 13 kts 270°
2026-05-07 15:31 40.79113 -73.10403 99 ft 14 kts 270°
2026-05-07 15:31 40.79113 -73.10533 99 ft 14 kts 270°
2026-05-07 15:31 40.79113 -73.10664 98 ft 14 kts 268°
2026-05-07 15:32 40.79068 -73.10773 98 ft 14 kts 226°
2026-05-07 15:32 40.79001 -73.10862 98 ft 14 kts 224°
2026-05-07 15:32 40.78935 -73.10948 98 ft 13 kts 225°
2026-05-07 15:32 40.78871 -73.11033 98 ft 13 kts 224°
2026-05-07 15:33 40.78818 -73.11107 99 ft 9 kts 236°
2026-05-07 15:33 40.78827 -73.11180 100 ft 8 kts 315°
2026-05-07 15:33 40.78862 -73.11212 104 ft 8 kts 346°
2026-05-07 15:33 40.78989 -73.11085 102 ft 51 kts 45°
2026-05-07 15:34 40.79401 -73.10540 103 ft 117 kts 45°
2026-05-07 15:34 40.80091 -73.09642 332 ft 149 kts 40°
2026-05-07 15:34 40.80843 -73.08651 1000 ft 157 kts 41°
2026-05-07 15:34 40.81624 -73.07606 1707 ft 164 kts 41°
2026-05-07 15:35 40.82373 -73.06407 2414 ft 177 kts 54°
2026-05-07 15:35 40.82833 -73.04828 3064 ft 194 kts 72°
2026-05-07 15:35 40.82971 -73.02963 3568 ft 219 kts 88°
2026-05-07 15:35 40.82810 -73.00823 3994 ft 246 kts 95°
2026-05-07 15:36 40.82490 -72.98515 4616 ft 265 kts 99°
2026-05-07 15:36 40.82048 -72.96071 5203 ft 281 kts 103°
2026-05-07 15:36 40.81530 -72.93531 5752 ft 291 kts 105°
2026-05-07 15:36 40.80974 -72.90925 6291 ft 299 kts 107°
2026-05-07 15:37 40.80401 -72.88256 6807 ft 305 kts 108°
2026-05-07 15:37 40.79826 -72.85539 7324 ft 310 kts 108°
2026-05-07 15:37 40.79249 -72.82765 7848 ft 316 kts 108°
2026-05-07 15:37 40.78671 -72.79947 8416 ft 320 kts 109°
2026-05-07 15:38 40.78089 -72.77081 9157 ft 326 kts 109°
2026-05-07 15:38 40.77498 -72.74166 9906 ft 332 kts 110°
2026-05-07 15:38 40.76872 -72.71193 10610 ft 339 kts 112°
2026-05-07 15:38 40.76148 -72.68248 11321 ft 344 kts 118°
2026-05-07 15:39 40.74991 -72.65480 12041 ft 339 kts 137°
2026-05-07 15:39 40.73343 -72.63360 12589 ft 333 kts 156°
2026-05-07 15:39 40.71286 -72.62069 13162 ft 325 kts 176°
2026-05-07 15:39 40.69077 -72.61741 13715 ft 316 kts 195°
2026-05-07 15:40 40.66995 -72.62492 14221 ft 309 kts 212°
2026-05-07 15:40 40.65107 -72.63881 14725 ft 313 kts 220°
2026-05-07 15:40 40.63329 -72.65594 15218 ft 320 kts 225°
2026-05-07 15:40 40.61605 -72.67513 15714 ft 327 kts 227°
2026-05-07 15:41 40.59915 -72.69570 16216 ft 335 kts 228°
2026-05-07 15:41 40.58160 -72.71637 16713 ft 341 kts 227°
2026-05-07 15:41 40.56380 -72.73671 17238 ft 344 kts 226°
2026-05-07 15:41 40.54560 -72.75716 17759 ft 344 kts 226°
2026-05-07 15:42 40.52731 -72.77758 18282 ft 345 kts 226°
2026-05-07 15:42 40.50894 -72.79805 18735 ft 346 kts 226°
2026-05-07 15:42 40.49061 -72.81854 19199 ft 346 kts 226°
2026-05-07 15:42 40.47222 -72.83911 19675 ft 347 kts 226°
2026-05-07 15:43 40.45381 -72.85974 20146 ft 348 kts 226°
2026-05-07 15:43 40.43537 -72.88042 20641 ft 349 kts 226°
2026-05-07 15:43 40.41708 -72.90094 21127 ft 351 kts 226°
2026-05-07 15:43 40.39845 -72.92181 21642 ft 352 kts 226°
2026-05-07 15:44 40.37984 -72.94265 22144 ft 353 kts 226°
2026-05-07 15:44 40.36111 -72.96361 22667 ft 354 kts 226°
2026-05-07 15:44 40.34235 -72.98458 23199 ft 355 kts 226°
2026-05-07 15:44 40.32353 -73.00559 23688 ft 356 kts 226°
2026-05-07 15:45 40.30469 -73.02662 24136 ft 356 kts 226°
2026-05-07 15:45 40.28582 -73.04765 24590 ft 355 kts 226°
2026-05-07 15:45 40.26704 -73.06856 25022 ft 356 kts 226°
2026-05-07 15:45 40.24805 -73.08972 25404 ft 357 kts 226°
2026-05-07 15:46 40.21004 -73.13202 26168 ft 359 kts 226°
2026-05-07 15:46 40.19124 -73.15290 26535 ft 360 kts 226°
2026-05-07 15:46 40.17208 -73.17417 26941 ft 360 kts 226°
2026-05-07 15:47 40.15294 -73.19540 27345 ft 360 kts 226°
2026-05-07 15:47 40.13383 -73.21656 27750 ft 360 kts 226°
2026-05-07 15:47 40.11474 -73.23770 28165 ft 360 kts 226°
2026-05-07 15:47 40.09567 -73.25881 28575 ft 359 kts 226°
2026-05-07 15:48 40.07673 -73.27992 29003 ft 358 kts 227°
2026-05-07 15:48 40.05784 -73.30106 29433 ft 357 kts 227°
2026-05-07 15:48 40.03903 -73.32214 29863 ft 356 kts 227°
2026-05-07 15:48 40.02030 -73.34316 30249 ft 354 kts 227°
2026-05-07 15:49 40.00165 -73.36404 30619 ft 353 kts 227°
2026-05-07 15:49 39.98307 -73.38484 30996 ft 351 kts 227°
2026-05-07 15:49 39.96456 -73.40554 31366 ft 349 kts 227°
2026-05-07 15:49 39.94615 -73.42610 31749 ft 348 kts 227°
2026-05-07 15:50 39.92790 -73.44649 31908 ft 350 kts 227°
2026-05-07 15:50 39.89091 -73.48777 31927 ft 350 kts 227°
2026-05-07 15:51 39.85390 -73.52898 31928 ft 350 kts 227°
2026-05-07 15:51 39.81683 -73.57025 31931 ft 351 kts 227°
2026-05-07 15:52 39.77965 -73.61164 31934 ft 352 kts 227°
2026-05-07 15:52 39.74243 -73.65302 31931 ft 352 kts 227°
2026-05-07 15:53 39.70542 -73.69409 31935 ft 353 kts 227°
2026-05-07 15:53 39.66792 -73.73564 31933 ft 353 kts 227°
2026-05-07 15:54 39.63043 -73.77712 31933 ft 354 kts 227°
2026-05-07 15:54 39.59308 -73.81839 31940 ft 355 kts 227°
2026-05-07 15:55 39.55543 -73.85992 31951 ft 355 kts 227°
2026-05-07 15:55 39.51768 -73.90151 31931 ft 356 kts 227°
2026-05-07 15:56 39.47988 -73.94309 31941 ft 357 kts 227°
2026-05-07 15:56 39.44200 -73.98469 31948 ft 357 kts 227°
2026-05-07 15:57 39.40431 -74.02602 31944 ft 358 kts 227°
2026-05-07 15:57 39.36626 -74.06764 31951 ft 358 kts 226°
2026-05-07 15:58 39.32808 -74.10933 31952 ft 359 kts 226°
2026-05-07 15:58 39.28987 -74.15099 31953 ft 360 kts 226°
2026-05-07 15:59 39.25153 -74.19274 31952 ft 361 kts 226°
2026-05-07 15:59 39.21303 -74.23461 31952 ft 362 kts 226°
2026-05-07 16:00 39.17478 -74.27614 31953 ft 362 kts 226°
2026-05-07 16:00 39.13618 -74.31798 31948 ft 363 kts 226°
2026-05-07 16:01 39.09757 -74.35978 31951 ft 363 kts 226°
2026-05-07 16:01 39.05874 -74.40175 31946 ft 364 kts 226°
2026-05-07 16:02 39.01984 -74.44373 31944 ft 364 kts 226°
2026-05-07 16:02 38.98101 -74.48558 31941 ft 365 kts 226°
2026-05-07 16:03 38.94230 -74.52737 31948 ft 365 kts 227°
2026-05-07 16:03 38.90436 -74.57080 31946 ft 365 kts 229°
2026-05-07 16:04 38.86692 -74.61499 31948 ft 366 kts 229°
2026-05-07 16:04 38.82959 -74.65900 31945 ft 367 kts 229°
2026-05-07 16:05 38.79181 -74.70325 31947 ft 368 kts 228°
2026-05-07 16:05 38.75386 -74.74739 31946 ft 370 kts 228°
2026-05-07 16:06 38.71434 -74.79006 31942 ft 372 kts 226°
2026-05-07 16:06 38.67387 -74.83184 31944 ft 374 kts 226°
2026-05-07 16:07 38.63327 -74.87367 31944 ft 375 kts 226°
2026-05-07 16:07 38.59267 -74.91571 31943 ft 376 kts 226°
2026-05-07 16:08 38.55228 -74.95760 31754 ft 372 kts 226°
2026-05-07 16:08 38.53228 -74.97837 31336 ft 367 kts 226°
2026-05-07 16:08 38.51280 -74.99933 30933 ft 366 kts 227°
2026-05-07 16:08 38.49355 -75.02069 30541 ft 367 kts 227°
2026-05-07 16:09 38.47431 -75.04227 30141 ft 369 kts 226°
2026-05-07 16:09 38.45448 -75.06323 29691 ft 370 kts 225°
2026-05-07 16:09 38.43416 -75.08329 29226 ft 369 kts 223°
2026-05-07 16:09 38.41356 -75.10288 28774 ft 368 kts 223°
2026-05-07 16:10 38.39289 -75.12224 28343 ft 367 kts 223°
2026-05-07 16:10 38.37229 -75.14148 27879 ft 366 kts 223°
2026-05-07 16:10 38.35208 -75.16040 27454 ft 365 kts 223°
2026-05-07 16:10 38.33162 -75.17965 27020 ft 363 kts 223°
2026-05-07 16:11 38.31133 -75.19880 26600 ft 362 kts 223°
2026-05-07 16:11 38.29334 -75.21582 26225 ft 361 kts 223°
2026-05-07 16:11 38.27101 -75.23696 25771 ft 360 kts 223°
2026-05-07 16:11 38.25097 -75.25593 25364 ft 358 kts 223°
2026-05-07 16:12 38.23100 -75.27483 24964 ft 357 kts 223°
2026-05-07 16:12 38.21114 -75.29359 24570 ft 355 kts 223°
2026-05-07 16:12 38.19142 -75.31222 24186 ft 354 kts 223°
2026-05-07 16:12 38.17180 -75.33074 23799 ft 353 kts 223°
2026-05-07 16:13 38.15214 -75.34928 23407 ft 353 kts 223°
2026-05-07 16:13 38.13201 -75.36835 23067 ft 369 kts 223°
2026-05-07 16:13 38.11121 -75.38807 22733 ft 376 kts 222°
2026-05-07 16:13 38.09013 -75.40794 22395 ft 378 kts 222°
2026-05-07 16:14 38.06902 -75.42776 22062 ft 377 kts 221°
2026-05-07 16:14 38.04770 -75.44716 21727 ft 377 kts 220°
2026-05-07 16:14 38.02574 -75.46556 21396 ft 378 kts 218°
2026-05-07 16:14 38.00343 -75.48335 21072 ft 377 kts 217°
2026-05-07 16:15 37.98131 -75.50062 20755 ft 377 kts 217°
2026-05-07 16:15 37.95896 -75.51799 20437 ft 377 kts 216°
2026-05-07 16:15 37.93661 -75.53540 20117 ft 377 kts 216°
2026-05-07 16:15 37.91425 -75.55293 19788 ft 377 kts 216°
2026-05-07 16:16 37.89201 -75.57043 19456 ft 377 kts 216°
2026-05-07 16:16 37.86980 -75.58797 19121 ft 376 kts 216°
2026-05-07 16:16 37.84758 -75.60553 18796 ft 376 kts 216°
2026-05-07 16:16 37.83285 -75.61718 18582 ft 376 kts 216°
2026-05-07 16:17 37.81074 -75.63466 18259 ft 376 kts 215°
2026-05-07 16:17 37.78854 -75.65218 17876 ft 375 kts 215°
2026-05-07 16:17 37.76645 -75.66959 17523 ft 374 kts 215°
2026-05-07 16:17 37.74440 -75.68695 17155 ft 372 kts 216°
2026-05-07 16:18 37.72260 -75.70409 16793 ft 364 kts 216°
2026-05-07 16:18 37.70143 -75.72069 16424 ft 353 kts 216°
2026-05-07 16:18 37.68083 -75.73685 16082 ft 347 kts 216°
2026-05-07 16:18 37.66036 -75.75294 15733 ft 345 kts 216°
2026-05-07 16:19 37.63992 -75.76902 15391 ft 344 kts 216°
2026-05-07 16:19 37.61963 -75.78498 15055 ft 343 kts 216°
2026-05-07 16:19 37.59958 -75.80070 14705 ft 334 kts 216°
2026-05-07 16:19 37.58042 -75.81569 14373 ft 324 kts 216°
2026-05-07 16:20 37.56129 -75.83063 14040 ft 315 kts 216°
2026-05-07 16:20 37.54305 -75.84491 13717 ft 313 kts 216°
2026-05-07 16:20 37.52456 -75.85940 13374 ft 312 kts 216°
2026-05-07 16:20 37.50613 -75.87386 13003 ft 311 kts 216°
2026-05-07 16:21 37.48780 -75.88822 12647 ft 310 kts 216°
2026-05-07 16:21 37.46969 -75.90236 12281 ft 302 kts 216°
2026-05-07 16:21 37.45209 -75.91606 11911 ft 294 kts 216°
2026-05-07 16:21 37.43489 -75.92948 11536 ft 287 kts 217°
2026-05-07 16:22 37.41861 -75.94340 11168 ft 280 kts 219°
2026-05-07 16:22 37.40323 -75.95769 10993 ft 267 kts 223°
2026-05-07 16:22 37.38898 -75.97222 10984 ft 263 kts 224°
2026-05-07 16:22 37.37484 -75.98688 10985 ft 264 kts 224°
2026-05-07 16:23 37.36067 -76.00162 10799 ft 265 kts 224°
2026-05-07 16:23 37.34647 -76.01638 10441 ft 264 kts 224°
2026-05-07 16:23 37.33232 -76.03104 10084 ft 262 kts 224°
2026-05-07 16:23 37.31827 -76.04556 9735 ft 261 kts 224°
2026-05-07 16:24 37.30386 -76.05939 9348 ft 261 kts 220°
2026-05-07 16:24 37.28906 -76.07212 8965 ft 261 kts 219°
2026-05-07 16:24 37.27404 -76.08486 8603 ft 260 kts 219°
2026-05-07 16:24 37.25909 -76.09761 8346 ft 259 kts 219°
2026-05-07 16:25 37.24418 -76.11037 8098 ft 259 kts 219°
2026-05-07 16:25 37.22930 -76.12314 7859 ft 259 kts 219°
2026-05-07 16:25 37.21444 -76.13597 7608 ft 258 kts 219°
2026-05-07 16:25 37.19966 -76.14875 7273 ft 259 kts 219°
2026-05-07 16:26 37.18474 -76.16170 6704 ft 263 kts 219°
2026-05-07 16:26 37.16974 -76.17481 6207 ft 260 kts 219°
2026-05-07 16:26 37.15518 -76.18768 5703 ft 254 kts 219°
2026-05-07 16:26 37.14089 -76.20055 5209 ft 253 kts 219°
2026-05-07 16:27 37.12669 -76.21348 4879 ft 251 kts 219°
2026-05-07 16:27 37.11267 -76.22645 4623 ft 251 kts 219°
2026-05-07 16:27 37.09878 -76.23931 4351 ft 252 kts 219°
2026-05-07 16:27 37.08477 -76.25245 4126 ft 252 kts 219°
2026-05-07 16:28 37.07075 -76.26563 3950 ft 251 kts 219°
2026-05-07 16:28 37.05678 -76.27877 3766 ft 251 kts 219°
2026-05-07 16:28 37.04280 -76.29195 3552 ft 251 kts 219°
2026-05-07 16:28 37.02886 -76.30519 3361 ft 251 kts 219°
2026-05-07 16:29 37.01492 -76.31845 3163 ft 251 kts 219°
2026-05-07 16:29 37.00088 -76.33138 2961 ft 251 kts 213°
2026-05-07 16:29 36.98481 -76.34022 2769 ft 252 kts 201°
2026-05-07 16:29 36.96806 -76.34686 2572 ft 252 kts 199°
2026-05-07 16:30 36.95131 -76.35346 2366 ft 252 kts 202°
2026-05-07 16:30 36.93544 -76.36215 2164 ft 252 kts 207°
2026-05-07 16:30 36.91966 -76.37252 2020 ft 253 kts 209°
2026-05-07 16:30 36.90484 -76.38257 1989 ft 237 kts 209°
2026-05-07 16:31 36.89082 -76.39216 1992 ft 224 kts 209°
2026-05-07 16:31 36.87744 -76.40133 2008 ft 210 kts 210°
2026-05-07 16:31 36.86405 -76.40670 2024 ft 203 kts 182°
2026-05-07 16:31 36.85074 -76.40168 2026 ft 203 kts 149°
2026-05-07 16:32 36.83960 -76.39086 2021 ft 200 kts 140°
2026-05-07 16:32 36.82943 -76.37952 1953 ft 193 kts 139°
2026-05-07 16:32 36.81950 -76.36826 1880 ft 192 kts 139°
2026-05-07 16:32 36.81020 -76.35645 1800 ft 191 kts 123°
2026-05-07 16:33 36.80588 -76.34104 1712 ft 188 kts 105°
2026-05-07 16:33 36.80276 -76.32533 1609 ft 183 kts 101°
2026-05-07 16:33 36.80259 -76.30999 1594 ft 175 kts 84°
2026-05-07 16:33 36.80506 -76.29552 1574 ft 163 kts 73°
2026-05-07 16:34 36.81058 -76.28364 1567 ft 152 kts 52°
2026-05-07 16:34 36.81773 -76.27473 1553 ft 142 kts 40°
2026-05-07 16:34 36.82545 -76.26713 1559 ft 141 kts 39°
2026-05-07 16:34 36.83308 -76.25948 1405 ft 141 kts 38°
2026-05-07 16:35 36.84074 -76.25209 1212 ft 141 kts 39°
2026-05-07 16:35 36.84846 -76.24458 1012 ft 141 kts 38°
2026-05-07 16:35 36.85617 -76.23710 838 ft 139 kts 38°
2026-05-07 16:35 36.86364 -76.22986 663 ft 131 kts 38°
2026-05-07 16:36 36.87063 -76.22309 479 ft 123 kts 39°
2026-05-07 16:36 36.87743 -76.21650 330 ft 124 kts 38°
2026-05-07 16:36 36.88435 -76.20965 184 ft 126 kts 39°
2026-05-07 16:36 36.89110 -76.20325 37 ft 116 kts 38°
2026-05-07 16:37 36.89618 -76.19835 34 ft 66 kts 37°
2026-05-07 16:37 36.89872 -76.19590 30 ft 30 kts 37°
2026-05-07 16:37 36.90007 -76.19510 30 ft 17 kts 334°
2026-05-07 16:37 36.90054 -76.19619 30 ft 14 kts 252°
2026-05-07 16:38 36.89989 -76.19693 30 ft 11 kts 218°
2026-05-07 16:38 36.89936 -76.19745 31 ft 8 kts 225°
2026-05-07 16:38 36.89928 -76.19792 31 ft 5 kts 291°
2026-05-07 16:38 36.89966 -76.19857 30 ft 13 kts 306°
2026-05-07 16:39 36.90002 -76.19955 29 ft 12 kts 282°
2026-05-07 16:39 36.90010 -76.20042 30 ft 9 kts 269°
2026-05-07 16:39 36.90006 -76.20103 32 ft 6 kts 266°
2026-05-07 16:39 36.89996 -76.20132 32 ft 4 kts 234°
2026-05-07 16:40 36.89978 -76.20152 33 ft 3 kts 220°
2026-05-07 16:40 36.89965 -76.20166 34 ft 2 kts 219°
2026-05-07 16:40 36.89958 -76.20173 33 ft 2 kts 219°
2026-05-07 16:40 36.89956 -76.20176 33 ft 0 kts 219°